Regional Weather Roundup
Issued by NWS Burlington, VT

Home | Current Version | Previous Version | Text Only | Print | Product List | Glossary On
Versions: 1 2 3 4 5 6 7 8 9 10 11 12 13 14 15 16 17 18 19 20 21 22 23 24 25 26 27 28 29 30 31 32 33 34 35 36 37 38 39 40 41 42 43 44 45 46 47 48 49 50
000
ASUS41 KBTV 041630
RWRBTV
VERMONT REGIONAL WEATHER ROUNDUP
NATIONAL WEATHER SERVICE BURLINGTON VT
1100 AM EST SUN DEC 04 2016

NOTE: "FAIR" INDICATES FEW OR NO CLOUDS BELOW 12,000 FEET WITH NO
SIGNIFICANT WEATHER AND/OR OBSTRUCTIONS TO VISIBILITY.

* THESE REPORTS ARE NOT UNDER NWS QUALITY CONTROL AND/OR DO NOT
  REPORT WEATHER SUCH AS PRECIPITATION AND FOG.

VTZ001>019-041700-
_____VERMONT_____


CITY           SKY/WX    TMP DP  RH WIND       PRES   REMARKS
BURLINGTON     FLURRIES  32  23  69 N8        30.26S WCI  25
MONTPELIER     CLOUDY    28  21  75 NW10G20   30.22S WCI  19
MORRISVILLE    CLOUDY    30  19  63 N12       30.23S WCI  20
ST. JOHNSBURY*   N/A     31  20  63 MISG      30.19S
LYNDONVILLE*   CLOUDY    29  20  71 W9        30.18F WCI  20
MIDDLEBURY*    CLOUDY    32  22  65 N8        30.23F WCI  25
RUTLAND*       CLOUDY    30  21  69 NW8       30.22S WCI  22
SPRINGFIELD    CLOUDY    33  18  53 NW7       30.21F WCI  27
HIGHGATE*      PTSUNNY   32  21  65 NW6       30.26S WCI  26
NEWPORT*       CLOUDY    28  20  73 NW9       30.20S WCI  19
BENNINGTON     CLOUDY    32  20  61 NW7       30.22R WCI  26
SUTTON*          N/A     27 N/A N/A MISG        N/A
ISLAND POND*     N/A     27 N/A N/A W7          N/A  WCI  19
GALLUP MILLS*    N/A     27 N/A N/A MISG        N/A
UNION VILLAGE*   N/A     32 N/A N/A MISG        N/A
MT. MANSFIELD*   N/A     18 N/A N/A CALM        N/A

_____LAKE CHAMPLAIN_____


CITY           SKY/WX    TMP DP  RH WIND       PRES   REMARKS
BURTON ISLAND*   N/A     32  25  74 NW7         N/A  WCI  26
COLCHESTER RF*   N/A     34  23  64 NW13        N/A  WCI  25
DIAMOND ISL*     N/A     34  23  64 N10         N/A  WCI  26

$$

NYZ007-026>031-035-052-083-087-041700-
_____NORTHERN NEW YORK_____


CITY           SKY/WX    TMP DP  RH WIND       PRES   REMARKS
PLATTSBURGH    CLOUDY    34  20  56 NW6       30.26F WCI  29
SARANAC LAKE   CLOUDY    23  18  81 VRB5      30.18F WCI  17
MASSENA        CLOUDY    32  20  61 W8        30.30S WCI  25
OGDENSBURG*    PTSUNNY   30  21  69 N5        30.29F WCI  25
POTSDAM*       CLOUDY    30  25  80 CALM      30.28F
STARK FALLS*     N/A     25 N/A N/A NW2         N/A
WATERTOWN      CLOUDY    30  19  63 NE6       30.30S WCI  24
FT DRUM        CLOUDY    28  20  71 CALM      30.26F
ALBANY         CLOUDY    34  20  56 W7        30.28R WCI  28
GLENS FALLS    CLOUDY    35  20  54 N8        30.26R WCI  29

$$
NHZ002-005-011-041700-
_____NEW HAMPSHIRE_____


CITY           SKY/WX    TMP DP  RH WIND       PRES   REMARKS
LEBANON        CLOUDY    34  21  59 N10       30.20F WCI  26
KEENE          LGT RAIN  34  20  56 N9        30.20S WCI  27
MT WASHINGTON  FOG        9   9 100 NW37G43     N/A  VSB 1/8 WCI -16
PLYMOUTH         N/A     33  22  62 NW14G22   30.19S WCI  24
WHITEFIELD     CLOUDY    29  18  63 W8        30.17S WCI  21

$$

_____REGIONAL QUEBEC LOCATIONS_____


CITY           SKY/WX    TMP DP  RH WIND       PRES   REMARKS
MONTREAL       MOSUNNY   30  19  64 NW7       30.27S WCI  23
QUEBEC CITY    MOSUNNY   25  16  68 W3        30.20S
SHERBROOKE     CLOUDY    25  19  80 W12       30.18S WCI  14

_____REGIONAL ONTARIO LOCATIONS_____


CITY           SKY/WX    TMP DP  RH WIND       PRES   REMARKS
OTTAWA         PTSUNNY   32  19  59 N5        30.28F WCI  27

______KEY______
VSB  - VISIBILITY IN MILES
WCI  - WIND CHILL INDEX
HX   - HEAT INDEX
$$
NNNN



USA.gov is the U.S. government's official web portal to all federal, state and local government web resources and services.